TimeCST,TemperatureF,Dew PointF,Humidity,Sea Level PressureIn,VisibilityMPH,Wind Direction,Wind SpeedMPH,Gust SpeedMPH,PrecipitationIn,Events,Conditions,WindDirDegrees,DateUTC
12:15 AM,19.4,17.6,93,30.01,10.0,SSW,9.2,-,N/A,,Overcast,200,2013-02-25 06:15:00
12:35 AM,19.4,17.6,93,30.01,10.0,SSW,9.2,-,N/A,,Overcast,200,2013-02-25 06:35:00
12:55 AM,19.4,15.8,86,30.01,9.0,SSW,10.4,-,N/A,,Overcast,210,2013-02-25 06:55:00
1:15 AM,19.4,17.6,93,30.01,7.0,SSW,9.2,-,N/A,,Overcast,200,2013-02-25 07:15:00
1:35 AM,19.4,17.6,93,30.01,6.0,SSW,10.4,-,N/A,,Overcast,200,2013-02-25 07:35:00
1:55 AM,19.4,17.6,93,30.02,6.0,SSW,9.2,-,N/A,,Overcast,210,2013-02-25 07:55:00
2:15 AM,19.4,17.6,93,30.02,6.0,SSW,9.2,-,N/A,,Overcast,200,2013-02-25 08:15:00
2:35 AM,19.4,17.6,93,30.01,5.0,SSW,9.2,-,N/A,,Overcast,210,2013-02-25 08:35:00
2:55 AM,19.4,17.6,93,30.01,5.0,SSW,9.2,-,N/A,,Overcast,200,2013-02-25 08:55:00
3:15 AM,19.4,17.6,93,30.01,2.5,SW,11.5,-,N/A,,Overcast,220,2013-02-25 09:15:00
3:35 AM,19.4,17.6,93,30.02,1.0,SW,9.2,-,N/A,,Overcast,220,2013-02-25 09:35:00
3:55 AM,19.4,17.6,93,30.01,1.2,SW,9.2,-,N/A,,Overcast,220,2013-02-25 09:55:00
4:15 AM,19.4,17.6,93,30.01,1.8,SW,10.4,-,N/A,,Overcast,230,2013-02-25 10:15:00
4:35 AM,19.4,17.6,93,30.02,2.5,SW,8.1,-,N/A,,Overcast,220,2013-02-25 10:35:00
4:55 AM,17.6,15.8,93,30.01,3.0,SSW,6.9,-,N/A,,Overcast,210,2013-02-25 10:55:00
5:15 AM,15.8,14.0,93,30.01,4.0,SSW,6.9,-,N/A,,Mostly Cloudy,200,2013-02-25 11:15:00
5:35 AM,15.8,12.2,86,30.01,1.0,SSW,8.1,-,N/A,,Overcast,210,2013-02-25 11:35:00
5:55 AM,15.8,12.2,86,30.02,0.5,SSW,8.1,-,N/A,,Overcast,210,2013-02-25 11:55:00
6:15 AM,12.2,10.4,92,30.01,1.8,South,8.1,-,N/A,,Overcast,190,2013-02-25 12:15:00
6:35 AM,12.2,8.6,85,30.02,0.2,South,6.9,-,N/A,,Overcast,190,2013-02-25 12:35:00
6:55 AM,10.4,8.6,92,30.03,0.2,SSW,6.9,-,N/A,,Overcast,200,2013-02-25 12:55:00
7:15 AM,10.4,8.6,92,30.03,0.2,South,6.9,-,N/A,,Overcast,190,2013-02-25 13:15:00
7:35 AM,10.4,8.6,92,30.03,0.2,SSW,6.9,-,N/A,,Overcast,200,2013-02-25 13:35:00
7:55 AM,10.4,8.6,92,30.03,0.2,South,6.9,-,N/A,,Overcast,190,2013-02-25 13:55:00
8:15 AM,10.4,8.6,92,30.04,0.2,SSW,4.6,-,N/A,,Overcast,210,2013-02-25 14:15:00
8:35 AM,10.4,8.6,92,30.04,0.5,South,5.8,-,N/A,,Overcast,190,2013-02-25 14:35:00
8:55 AM,10.4,8.6,92,30.03,0.2,South,5.8,-,N/A,,Overcast,180,2013-02-25 14:55:00
9:15 AM,10.4,8.6,92,30.03,0.2,South,5.8,-,N/A,,Overcast,170,2013-02-25 15:15:00
9:35 AM,10.4,8.6,92,30.03,0.8,South,5.8,-,N/A,,Overcast,180,2013-02-25 15:35:00
9:55 AM,12.2,10.4,92,30.04,5.0,South,5.8,-,N/A,,Scattered Clouds,190,2013-02-25 15:55:00
10:15 AM,12.2,10.4,92,30.04,5.0,South,6.9,-,N/A,,Clear,190,2013-02-25 16:15:00
10:35 AM,14.0,12.2,93,30.04,7.0,South,8.1,-,N/A,,Clear,180,2013-02-25 16:35:00
10:55 AM,15.8,12.2,86,30.04,8.0,South,6.9,-,N/A,,Clear,180,2013-02-25 16:55:00
11:15 AM,15.8,14.0,93,30.03,8.0,South,6.9,-,N/A,,Clear,180,2013-02-25 17:15:00
11:35 AM,17.6,15.8,93,30.03,10.0,South,8.1,-,N/A,,Clear,180,2013-02-25 17:35:00
11:55 AM,17.6,15.8,93,30.03,9.0,South,9.2,-,N/A,,Clear,180,2013-02-25 17:55:00
12:15 PM,17.6,17.6,100,30.02,10.0,South,8.1,-,N/A,,Clear,180,2013-02-25 18:15:00
12:35 PM,19.4,17.6,93,30.01,10.0,South,11.5,-,N/A,,Clear,180,2013-02-25 18:35:00
12:55 PM,19.4,17.6,93,30.01,10.0,South,10.4,-,N/A,,Clear,180,2013-02-25 18:55:00
1:15 PM,21.2,19.4,93,30.01,10.0,South,12.7,-,N/A,,Clear,190,2013-02-25 19:15:00
1:35 PM,21.2,21.2,100,29.99,10.0,South,9.2,-,N/A,,Clear,190,2013-02-25 19:35:00
1:55 PM,23.0,21.2,93,29.99,10.0,South,11.5,-,N/A,,Clear,190,2013-02-25 19:55:00
2:15 PM,23.0,21.2,93,29.99,10.0,South,12.7,-,N/A,,Clear,190,2013-02-25 20:15:00
2:35 PM,24.8,21.2,86,29.99,10.0,South,10.4,-,N/A,,Clear,190,2013-02-25 20:35:00
2:55 PM,24.8,21.2,86,29.99,10.0,South,11.5,-,N/A,,Clear,190,2013-02-25 20:55:00
3:15 PM,24.8,21.2,86,29.99,10.0,South,11.5,-,N/A,,Clear,180,2013-02-25 21:15:00
3:35 PM,26.6,21.2,80,29.99,10.0,South,10.4,-,N/A,,Clear,170,2013-02-25 21:35:00
3:55 PM,26.6,19.4,74,29.98,10.0,SSE,11.5,-,N/A,,Clear,160,2013-02-25 21:55:00
4:15 PM,26.6,19.4,74,29.98,10.0,SSE,10.4,-,N/A,,Clear,160,2013-02-25 22:15:00
4:35 PM,24.8,19.4,80,29.98,10.0,South,10.4,-,N/A,,Clear,170,2013-02-25 22:35:00
4:55 PM,24.8,21.2,86,29.98,10.0,South,9.2,-,N/A,,Clear,170,2013-02-25 22:55:00
5:15 PM,24.8,19.4,80,29.99,10.0,South,9.2,-,N/A,,Clear,170,2013-02-25 23:15:00
5:35 PM,24.8,17.6,74,29.99,10.0,SSE,10.4,-,N/A,,Clear,160,2013-02-25 23:35:00
5:55 PM,23.0,17.6,80,29.99,10.0,SSE,10.4,-,N/A,,Clear,160,2013-02-25 23:55:00
6:15 PM,21.2,17.6,86,29.99,10.0,SSE,8.1,-,N/A,,Clear,150,2013-02-26 00:15:00
6:35 PM,19.4,15.8,86,29.98,10.0,SSE,10.4,-,N/A,,Clear,150,2013-02-26 00:35:00
6:55 PM,17.6,14.0,86,29.99,10.0,SSE,11.5,-,N/A,,Clear,160,2013-02-26 00:55:00
7:15 PM,17.6,15.8,93,29.99,10.0,South,10.4,-,N/A,,Clear,170,2013-02-26 01:15:00
7:35 PM,19.4,17.6,93,30.00,10.0,South,11.5,-,N/A,,Clear,180,2013-02-26 01:35:00
8:15 PM,17.6,15.8,93,29.99,10.0,South,8.1,-,N/A,,Clear,180,2013-02-26 02:15:00
8:35 PM,17.6,15.8,93,29.99,10.0,South,9.2,-,N/A,,Clear,180,2013-02-26 02:35:00
8:55 PM,17.6,12.2,79,29.99,10.0,South,9.2,-,N/A,,Clear,180,2013-02-26 02:55:00
9:15 PM,17.6,14.0,86,29.99,10.0,South,11.5,-,N/A,,Clear,180,2013-02-26 03:15:00
9:35 PM,17.6,12.2,79,29.99,10.0,South,11.5,-,N/A,,Clear,180,2013-02-26 03:35:00
9:55 PM,15.8,12.2,86,29.98,10.0,South,11.5,-,N/A,,Clear,180,2013-02-26 03:55:00
10:15 PM,17.6,14.0,86,29.99,9.0,South,10.4,-,N/A,,Clear,180,2013-02-26 04:15:00
10:35 PM,15.8,14.0,93,29.99,10.0,South,11.5,-,N/A,,Clear,180,2013-02-26 04:35:00
10:55 PM,14.0,12.2,93,29.99,10.0,South,10.4,-,N/A,,Clear,180,2013-02-26 04:55:00
11:15 PM,14.0,12.2,93,29.99,10.0,South,10.4,-,N/A,,Clear,180,2013-02-26 05:15:00
11:35 PM,12.2,12.2,100,29.99,8.0,South,9.2,-,N/A,,Clear,180,2013-02-26 05:35:00
11:55 PM,12.2,12.2,100,29.99,7.0,South,6.9,-,N/A,,Clear,180,2013-02-26 05:55:00